{"data":{"norad_id":49062,"epoch":"2026-09-20T00:16:46.769952Z","epoch_age_seconds":64075,"freshness":"FRESH","line1":"1 49062U 21071A   26263.01165243 -.00000296  00000+0  00000+0 0  9999","line2":"2 49062   0.0368  78.2656 0000406 158.0070 224.9213  1.00272112 18991","mean_motion":1.00272112,"eccentricity":4.06e-5,"inclination_deg":0.0368,"raan_deg":78.2656,"arg_perigee_deg":158.007,"mean_anomaly_deg":224.9213,"bstar":0,"rev_number":1899,"period_min":1436.0922207363,"perigee_km":35784.791407074,"apogee_km":35788.215175865,"semimajor_km":42164.640291469,"source":"CELESTRAK","updated_at":"2026-09-20T09:00:35.299112Z"}}